Showing default

POLAR SCOUT KODIAK, 43764

Orbit data source: Space-Track

POLAR SCOUT KODIAK, 43764 is an American payload satellite in SSO that was launched on Mon, 03 Dec 2018 UTC via an FALCON 9 launch vehicle from the Air Force Western Test Range (AFWTR). Payload-class satellites include a variety of spacecraft equipped with specific instruments for various scientific and technological missions. These include communications satellites like Starlink; space stations such as the ISS; scientific satellites like the Hubble; Earth observation satellites from companies like Planet Labs, Umbra, and HawkEye 360; GPS; miniature CubeSats for education and research; and military/defense satellites.

Loading next visibility...
Identifier
43764, 2018-099G
Orbit
SSO
Country
Flag of USUS
Related business
Manufacturer
Millenium EI
Mission
Operational Defense Technology
Bus & Motor
CUBESAT 6U, Unknown motor
Mass
10 kg wet, 10 kg dry
Launch date (UTC)
2018-12-03 (8 years ago)
Launch vehicle
FALCON 9
Launch site
Air Force Western Test Range (AFWTR)
Object type
Payload
Rocket body
Debris
Shape & HBR
Box + 3 Pan, 0.3 m
Radar Cross Section
0.054 m², Medium (>0.1 m² and < 1m²)

Expand to show TLE details & history
Last TLE update: 2 days ago

TLE from 2 days ago
0 POLAR SCOUT KODIAK
1 43764U 18099G   26171.21666833  .00186063  00000-0  10097-2 0  9996
2 43764  97.4158 255.1983 0007835 212.2604 147.8185 15.79468970415418
Epoch: 2026-06-20T05:12Z
TLE epoch observation values (Epoch: 2026-06-20T05:12:00.143Z)
Latitude
-0.00003°
Longitude
-91.23676°
Altitude
339.566 km
Speed
7.702 km/s
True Right ascension
17h 00m 47s
True Declination
0° 00' 00"
Sunlit
Object was in full shadow at epoch
Visualization orbit readout
Latitude
Unknown
Longitude
Unknown
Altitude
Unknown
Speed
Unknown
Apparent Right ascension
Unknown
Apparent Declination
Unknown
Sunlit
N/A
Visualization observer readout
Local Sidereal Time
23:19:38
Azimuth
Unknown
Elevation
Unknown
Doppler factor
Unknown
Orbital elements
Apogee altitude
334.087 km
Perigee altitude
323.577 km
Semi-major axis
6,706.969 km
Eccentricity
0.00078
Inclination
97.4158°
RAAN
255.1983°
Arg. of periapsis
212.2604°
True anomaly
147.86628°
Mean anomaly
147.8185°
Eccentric anomaly
147.84239°
Mean motion
3.95143 °/min
Orbital period
91.11 mins
BSTAR
0.0010097
Loading maneuver chart data...
Computing Atmospheric mass density...
Loading historical data...
Loading historical data...
Loading historical data...
Loading historical data...
Loading historical data...
Loading historical data...
Loading historical data...

Documentation

Showing up to 5 results
|